Location: Peterborough
(44.3091°N, 78.3197°W)
Time: 17:14:12
(UTC-04:00)

Explorer 7 - Pass Details

Date: 24 March 2023
Orbit: 477 x 653 km, 50.3° (Epoch: 04 June)

Event Time Altitude Azimuth Distance (km) Brightness Sun altitude
Rises 16:26:36 0° 182° (S) 2,921 10.9 30.6°
Reaches altitude 10° 16:30:34 10° 149° (SSE) 1,980 9.7 30.0°
Maximum altitude 16:32:00 11° 130° (SE) 1,876 9.4 29.8°
Drops below altitude 10° 16:33:25 10° 111° (ESE) 1,951 9.4 29.6°
Sets 16:37:16 0° 78° (ENE) 2,821 9.9 29.0°
